SCP
0 0 0 0 0 0 0 0 0 0 0 0 0 0 0 0 0 0 0 0 0 0 0 0 0 0 0 0 0 0 0 0 0 0 0 0 0 0 0 0 0 0 0 0
0 0 0 0 0 0 0 0 0 0 0 0 0 0 0 0 0 0 0 0 0 0 0 0 0 0 0 0 0 0 0 0 0 0 0 0 0 0 0 0 0 0 0 0
0 0 0 0 0 0 0 0 0 0 0 0 0 0 0 0 0 0 0 0 0 0 0 0 0 0 0 0 0 0 0 0 0 0 0 0 0 0 0 0 0 0 0 0
0 0 0 -0 0 0 0 0 0 0 0 0 0 0 0 0 0 0 0 0 0 0 0 0 0 0 0 0 0 0 0 0 0 0 0 0 0 0 0 0 0 0 0 0
0 0 -0 -0 0 0 0 0 0 0 0 0 0 0 0 0 0 0 0 0 0 0 0 0 0 0 0 0 0 0 0 0 0 0 0 0 0 0 0 0 0 0 0 0
0 0 -0 -0 0 0 0 0 0 0 0 0 0 0 0 0 0 0 0 0 0 0 0 0 0 0 0 0 0 0 0 0 0 0 0 0 0 0 0 0 0 0 0 0
0 0 0 0 0 0 0 0 0 0 0 0 0 0 0 0 0 0 0 0 0 0 0 0 0 0 0 0 0 0 0 0 0 0 0 0 0 0 0 0 0 0 0 0
0 0 0 0 0 0 0 0 0 0 0 0 0 0 0 0 0 0 0 0 0 0 0 0 0 0 0 0 0 0 0 0 0 0 0 0 0 0 0 0 0 0 0 0
0 0 0 0 0 0 0 0 0 0 0 0 0 0 0 0 0 0 0 0 0 0 0 0 0 0 0 0 0 0 0 0 0 0 0 0 0 0 0 0 0 0 0 0
0 0 0 0 0 0 0 0 -0 -0 0 0 0 0 0 0 0 0 0 0 0 0 0 0 0 0 0 0 0 0 0 0 0 0 0 0 0 0 0 0 0 0 0 0
0 0 0 0 0 0 0 0 0 0 0 0 0 0 0 0 0 0 0 0 0 0 0 0 0 0 0 0 0 0 0 0 0 0 0 0 0 0 0 0 0 0 0 0
0 0 0 0 0 0 0 0 0 0 0 0 0 0 0 0 0 0 0 0 0 0 0 0 0 0 0 0 0 0 0 0 0 0 0 0 0 0 0 0 0 0 0 0
0 0 0 0 0 0 0 0 0 0 0 0 0 0 0 0 0 0 0 0 0 0 0 0 0 0 0 0 0 0 0 0 0 0 0 0 0 0 0 0 0 0 0 0
0 0 0 0 0 0 0 0 0 0 0 0 0 0 0 0 0 0 0 0 0 0 0 0 0 -0 0 0 0 0 0 0 0 0 0 0 0 0 0 0 0 0 0 0
0 0 0 0 0 0 0 0 0 0 0 0 0 0 0 0 0 0 0 0 0 0 0 0 0 0 0 0 0 0 0 0 0 0 0 0 0 0 0 0 0 0 0 0
0 0 0 0 0 0 0 0 0 0 0 0 0 0 0 0 0 -0 -0 -0 0 0 0 0 0 0 0 0 0 0 0 0 0 0 0 0 0 0 0 0 0 0 0 0
0 0 0 0 0 0 0 0 0 0 0 0 0 0 0 0 0 -0 -0 -0 0 0 0 0 0 0 0 0 0 0 0 0 0 0 0 0 0 0 0 0 0 0 0 0
0 0 0 0 0 0 0 0 0 0 0 0 0 0 0 0 0 -0 -0 -0 0 0 0 0 0 0 0 0 0 0 0 0 0 0 0 0 0 0 0 0 0 0 0 0
0 0 0 0 0 0 0 0 0 0 0 0 0 0 0 0 0 0 0 0 0 0 0 0 0 0 0 0 0 0 0 0 0 0 0 0 0 0 0 0 0 0 0 0
0 0 0 0 0 0 0 0 0 0 0 0 0 0 0 0 0 0 0 0 0 0 0 0 0 0 0 0 0 0 0 0 0 0 0 0 0 0 0 0 0 0 0 -0
0 0 0 0 0 0 0 0 0 0 0 0 0 0 0 0 0 0 0 0 0 0 0 0 0 0 0 0 0 0 0 0 0 0 0 0 0 0 0 0 0 0 -0 -0
0 0 0 0 0 0 0 0 0 0 0 0 0 0 0 0 0 0 0 0 0 0 0 0 0 0 0 0 0 0 0 0 0 0 0 0 0 0 0 0 0 0 -0 -0
0 0 0 0 0 0 0 0 0 0 0 0 0 0 0 0 0 0 0 0 0 0 0 0 0 0 0 0 0 0 0 0 0 0 0 0 0 0 0 0 0 0 0 0
0 0 0 0 0 0 0 0 0 0 0 0 0 0 0 0 0 0 0 0 0 0 0 0 0 0 0 0 0 0 0 0 0 0 0 0 0 0 0 0 0 0 0 0
0 0 0 0 0 0 0 0 0 0 0 0 0 0 0 0 0 0 0 0 0 0 0 0 0 0 0 0 0 0 0 0 0 0 0 0 0 0 0 0 0 0 0 0
0 0 0 0 0 0 0 0 0 0 0 0 0 0 0 0 0 0 0 0 0 0 0 0 0 0 0 0 0 0 0 0 0 0 0 0 0 0 0 0 0 0 0 0
Wind_Speed
1 3 4 8 8 4 3 4 5 4 2 3 7 10 9 5 6 7 7 7 8 7 4 4 4 5 5 4 4 4 4 4 3 2 2 2 1 1 2 2 2 3 3 3
2 5 6 3 3 2 3 4 5 4 1 3 5 10 8 6 8 9 10 10 9 6 4 4 5 5 5 5 5 4 4 4 3 2 2 1 2 1 1 1 2 2 2 3
7 4 2 3 2 4 5 6 5 4 2 1 3 8 5 4 4 5 6 6 7 9 8 7 6 6 5 5 5 5 4 4 3 3 3 2 2 1 1 1 1 2 2 2
4 2 1 2 4 5 7 4 4 3 2 4 2 7 7 4 4 6 6 6 7 7 7 7 7 7 7 6 5 4 4 4 4 4 4 4 2 1 1 0 0 1 2 2
4 2 2 4 4 5 4 1 2 2 3 3 3 5 9 2 5 7 7 7 7 7 7 7 7 7 6 5 5 5 4 4 4 4 4 4 2 1 1 0 1 1 1 1
2 1 2 3 0 2 3 3 3 2 2 5 6 6 9 5 7 5 5 6 6 6 6 5 5 5 4 5 4 4 5 4 4 4 4 4 3 2 1 0 0 1 1 1
3 2 1 1 2 1 2 3 2 2 2 7 3 5 10 5 3 4 5 5 5 5 6 5 5 5 5 6 5 5 5 4 4 4 4 4 4 3 3 2 1 1 1 1
2 5 3 1 3 4 3 5 5 5 5 5 2 8 8 3 2 1 1 2 2 3 4 5 5 6 6 6 6 6 5 4 4 4 4 3 3 2 2 2 2 2 1 2
4 5 1 1 1 5 4 3 3 3 1 4 7 7 8 1 2 1 1 1 2 2 3 3 3 4 4 5 5 6 6 4 4 4 3 3 3 2 2 2 1 1 1 1
3 4 3 1 1 1 2 4 3 3 3 6 6 6 6 3 3 2 1 2 2 2 2 2 2 3 3 3 3 3 4 4 3 3 3 2 3 3 2 2 2 1 2 1
2 3 3 1 4 5 3 3 3 3 3 4 5 8 4 4 3 3 3 2 2 2 2 2 2 2 2 2 3 2 3 3 3 3 3 2 2 2 2 2 2 2 2 2
1 2 4 6 3 2 4 5 6 5 5 4 4 8 1 1 1 1 1 0 1 2 2 2 2 2 2 2 2 2 2 3 2 3 2 2 2 1 2 2 2 2 2 2
2 2 2 4 2 1 2 3 3 2 2 4 5 9 1 3 2 1 0 0 0 1 2 2 2 2 2 2 2 1 2 2 2 2 2 2 2 2 2 2 2 2 2 2
1 4 7 9 6 4 5 5 4 4 5 6 10 10 6 3 2 2 1 1 1 1 2 2 1 1 1 1 1 1 1 1 1 2 2 2 2 2 2 2 2 2 2 2
2 4 6 7 6 5 7 7 7 9 9 9 10 10 9 5 4 3 2 1 1 1 1 1 1 1 1 1 0 0 0 1 1 1 1 1 2 1 1 2 2 2 2 3
1 3 3 6 4 5 8 7 8 10 9 10 9 11 6 4 1 2 2 2 2 3 3 2 1 1 1 1 1 1 1 1 1 1 1 1 1 1 2 2 2 2 2 3
2 2 2 5 3 3 7 6 7 5 6 6 10 10 4 4 4 4 4 4 3 3 2 2 2 2 2 1 1 1 2 1 1 1 1 1 1 2 2 2 2 3 3 3
5 3 2 3 2 7 6 1 3 5 5 5 5 5 4 4 3 2 2 3 2 2 2 2 2 2 1 1 1 1 1 1 1 1 2 2 2 2 2 2 3 3 3 3
5 5 3 2 4 8 5 1 1 3 6 3 5 5 4 3 3 3 1 1 2 2 2 2 2 2 1 1 1 1 1 1 1 2 2 2 2 3 3 3 4 3 3 3
2 2 3 3 4 7 4 3 3 1 5 2 2 4 3 2 2 4 1 1 2 1 0 1 1 1 1 1 1 1 1 1 2 3 3 3 3 3 4 4 4 3 3 4
1 1 3 5 5 7 3 3 1 2 5 4 2 3 2 3 4 3 2 2 2 1 1 0 1 1 1 1 1 1 2 3 3 3 3 3 3 3 4 3 3 3 3 3
4 4 4 3 5 7 3 2 2 4 4 3 3 2 2 3 3 3 2 2 2 2 1 0 0 1 1 1 1 2 3 3 2 2 3 3 3 3 3 2 3 3 3 3
3 3 3 5 4 2 1 1 3 3 3 3 3 3 2 3 3 3 3 2 2 1 1 1 0 1 1 1 1 2 3 2 2 3 3 3 3 3 3 3 3 3 3 3
2 2 1 3 4 4 3 4 5 4 4 4 3 3 2 3 3 3 3 3 2 2 1 1 0 1 2 2 2 2 3 2 2 3 3 3 3 3 3 3 3 3 3 3
3 1 2 4 5 5 4 4 5 5 4 4 4 3 2 2 3 3 3 3 3 2 2 1 1 2 3 2 2 3 2 1 2 3 3 3 3 3 3 3 3 4 4 5
2 2 3 5 4 5 6 5 5 4 5 4 4 4 3 2 3 3 3 3 2 2 2 2 2 3 3 2 3 3 2 2 2 3 3 3 3 3 3 3 4 6 6 9
Wind_Direction
67 100 204 212 207 215 197 210 242 250 197 196 235 255 259 225 212 218 215 210 209 211 202 170 166 157 144 139 138 141 132 126 119 109 113 109 88 65 50 44 42 36 30 31
60 237 230 197 196 208 211 238 258 276 216 221 261 266 256 223 215 212 212 212 207 195 179 174 164 157 159 160 160 156 151 141 138 135 134 134 127 108 87 52 45 35 34 28
202 233 183 170 184 209 222 220 235 250 323 268 304 288 257 241 221 216 212 208 199 195 191 186 178 174 170 174 175 172 165 151 146 133 111 90 81 73 58 33 24 14 28 28
236 254 166 188 215 195 243 225 217 217 242 266 209 280 270 245 249 228 220 208 202 198 193 188 182 179 181 184 174 170 169 157 148 142 141 142 146 155 195 210 320 2 26 15
246 208 181 215 230 196 218 152 185 213 213 267 218 244 277 256 251 243 223 213 208 199 192 191 187 184 179 174 169 169 165 158 153 152 156 153 151 158 142 113 49 14 10 4
249 246 206 209 265 176 136 81 61 63 105 258 215 203 271 228 225 239 224 212 207 196 192 188 180 165 165 163 164 162 164 160 157 157 160 164 164 156 141 120 24 353 345 342
297 273 271 115 86 56 111 101 9 326 262 250 187 211 251 246 232 225 221 215 206 190 180 178 174 172 173 171 172 170 167 166 165 165 171 176 174 171 182 200 213 258 299 311
260 275 221 195 180 178 189 161 178 220 238 273 233 235 253 263 306 296 224 191 170 168 175 181 183 178 178 178 176 174 174 174 171 175 181 178 169 170 189 209 214 225 245 266
214 257 340 309 257 154 161 201 173 148 258 270 258 273 292 289 338 4 72 124 181 174 174 177 173 173 175 178 181 179 175 175 179 182 177 174 174 175 186 203 216 219 241 269
187 255 282 312 48 358 174 153 125 159 216 259 275 261 253 265 266 279 268 225 204 157 153 156 163 166 165 170 169 164 167 175 180 175 177 179 182 186 190 194 214 234 251 267
167 210 289 295 205 200 157 169 173 173 197 205 265 266 229 223 227 224 234 226 180 165 164 161 154 145 135 131 135 139 151 157 169 175 171 176 184 180 182 205 218 224 241 254
149 155 249 248 243 234 199 195 167 185 227 211 237 269 340 224 278 194 254 256 140 154 143 129 125 116 118 126 127 133 145 150 168 172 165 176 180 176 196 225 233 224 236 249
161 150 303 316 308 334 239 225 201 166 158 199 223 262 39 17 12 44 131 302 98 115 108 100 101 117 129 137 139 136 142 142 142 152 159 170 185 199 217 234 245 240 238 249
185 193 211 234 252 226 238 235 206 179 209 229 235 258 280 302 304 310 306 253 192 154 150 142 126 125 130 135 138 148 144 136 132 140 166 189 204 216 227 237 245 247 244 248
156 233 242 260 272 256 246 236 214 212 217 227 250 252 264 259 250 251 251 232 173 183 175 167 164 166 147 104 92 203 187 149 143 152 189 222 225 220 236 248 251 255 256 260
186 239 259 272 269 274 269 253 228 228 234 243 261 268 278 284 263 255 248 230 226 218 209 196 188 183 196 204 248 276 253 205 155 178 229 248 232 236 251 256 257 263 265 268
201 198 248 273 309 324 267 241 212 216 222 218 240 256 283 296 269 246 236 226 225 225 216 210 215 216 224 231 235 240 253 228 186 218 246 252 252 260 264 264 264 262 263 262
187 185 217 275 0 253 253 156 190 219 243 234 253 275 269 269 286 274 224 201 225 247 240 223 212 226 241 231 246 254 271 221 214 238 253 256 255 262 269 264 262 262 261 259
191 176 190 211 247 272 291 345 175 217 261 246 246 274 302 337 353 317 233 187 230 243 239 220 207 211 200 200 221 227 267 250 236 248 254 259 261 263 265 263 263 268 264 266
103 148 184 202 226 248 282 323 308 154 282 320 254 269 295 15 301 277 313 323 304 316 244 203 173 153 180 217 193 206 259 258 259 259 259 263 262 259 258 258 263 267 262 265
133 175 206 221 238 262 310 316 34 164 277 323 291 268 238 231 243 282 321 324 324 324 327 284 156 192 214 201 188 250 257 260 268 277 274 272 266 264 261 257 259 259 267 274
191 195 208 198 227 260 357 67 175 254 309 323 313 291 258 268 294 305 316 320 329 334 342 354 195 278 268 213 211 261 269 281 288 286 285 278 273 272 272 255 262 261 258 265
208 215 214 206 223 306 112 223 284 320 307 310 310 305 278 279 289 302 308 307 309 307 303 304 225 288 293 256 232 257 282 294 294 290 286 284 283 278 273 253 257 262 251 257
300 332 276 276 285 300 295 311 319 319 302 311 314 311 293 271 274 291 299 309 309 302 292 302 254 280 289 287 286 274 283 288 282 282 285 284 280 280 276 268 258 257 255 259
293 317 290 276 297 315 305 310 314 323 330 326 322 312 289 260 276 281 287 291 290 295 302 287 258 267 279 288 294 297 291 275 282 284 280 281 276 272 273 271 260 262 250 250
299 254 253 268 290 286 293 320 332 327 319 313 317 320 319 284 276 284 285 287 287 288 293 286 280 280 285 291 294 295 286 266 264 279 283 278 272 270 273 277 289 282 282 286